KD5NDU-15 Weather Reports


Display with metric or nautical units.
time (UTC)temp
F
wind
direction
speed
MPH
gust
MPH
rain 1hr
in
rain 24hr
in
rain mn
in
humidity
%
barometer
mb
20260905190131 101 313 4.0 7.0 0.00 0.00 0.00 48 1013.1
20260905185631 101 145 4.0 8.0 0.00 0.00 0.00 48 1013.0
20260905185131 101 131 4.0 8.0 0.00 0.00 0.00 48 1013.2
20260905184631 100 217 4.0 9.0 0.00 0.00 0.00 49 1013.2
20260905184131 101 86 3.0 10.0 0.00 0.00 0.00 48 1013.2
20260905183631 101 88 3.0 7.0 0.00 0.00 0.00 48 1013.3
20260905183131 100 115 3.0 10.0 0.00 0.00 0.00 49 1013.4
20260905182631 100 247 3.0 9.0 0.00 0.00 0.00 49 1013.5
20260905182131 100 203 3.0 8.0 0.00 0.00 0.00 51 1013.6
20260905181631 100 65 4.0 8.0 0.00 0.00 0.00 49 1013.7
20260905181131 100 110 4.0 9.0 0.00 0.00 0.00 51 1013.6
20260905180631 100 161 3.0 8.0 0.00 0.00 0.00 50 1013.7
20260905180131 100 209 3.0 7.0 0.00 0.00 0.00 50 1013.8
20260905175631 100 70 3.0 5.0 0.00 0.00 0.00 52 1013.9
20260905175131 99 2 3.0 7.0 0.00 0.00 0.00 53 1013.8
20260905174631 99 162 3.0 6.0 0.00 0.00 0.00 52 1013.9
20260905174131 99 14 3.0 5.0 0.00 0.00 0.00 52 1014.0
20260905173631 99 127 3.0 9.0 0.00 0.00 0.00 51 1014.0
20260905173131 101 127 2.0 9.0 0.00 0.00 0.00 50 1014.1
20260905172631 101 162 1.0 3.0 0.00 0.00 0.00 53 1014.0
20260905172131 100 226 2.0 4.0 0.00 0.00 0.00 54 1014.0
20260905171631 99 307 2.0 3.0 0.00 0.00 0.00 54 1014.1
20260905171131 99 359 3.0 6.0 0.00 0.00 0.00 53 1014.2
20260905170631 98 150 4.0 6.0 0.00 0.00 0.00 56 1014.4
20260905170131 99 98 3.0 8.0 0.00 0.00 0.00 54 1014.5
20260905165631 99 181 2.0 4.0 0.00 0.00 0.00 56 1014.5
20260905165131 99 55 2.0 6.0 0.00 0.00 0.00 56 1014.6
20260905164631 99 106 2.0 5.0 0.00 0.00 0.00 56 1014.7
20260905164131 98 295 2.0 5.0 0.00 0.00 0.00 58 1014.7
20260905163631 98 27 2.0 5.0 0.00 0.00 0.00 59 1014.6
20260905163131 98 86 2.0 6.0 0.00 0.00 0.00 58 1014.8
20260905162631 98 0 2.0 3.0 0.00 0.00 0.00 59 1014.7
20260905162131 97 15 2.0 5.0 0.00 0.00 0.00 59 1014.6
20260905161631 97 28 2.0 4.0 0.00 0.00 0.00 59 1014.7
20260905161131 97 1 2.0 3.0 0.00 0.00 0.00 60 1014.9
20260905160631 97 32 2.0 5.0 0.00 0.00 0.00 61 1014.8
20260905160131 97 71 2.0 3.0 0.00 0.00 0.00 61 1014.8
20260905155631 96 49 2.0 7.0 0.00 0.00 0.00 62 1014.9
20260905155131 97 113 1.0 5.0 0.00 0.00 0.00 61 1015.0
20260905154631 96 64 1.0 4.0 0.00 0.00 0.00 63 1014.9
20260905154131 96 18 1.0 3.0 0.00 0.00 0.00 64 1014.8
20260905153631 96 20 1.0 2.0 0.00 0.00 0.00 64 1014.8
20260905153131 95 20 1.0 2.0 0.00 0.00 0.00 65 1014.9
20260905152631 94 20 1.0 2.0 0.00 0.00 0.00 65 1014.8
20260905152131 94 101 1.0 4.0 0.00 0.00 0.00 66 1014.8
20260905151631 93 357 1.0 3.0 0.00 0.00 0.00 67 1014.8
20260905151131 93 25 2.0 4.0 0.00 0.00 0.00 68 1014.9
20260905150631 92 105 1.0 4.0 0.00 0.00 0.00 68 1014.9
20260905150131 92 55 0.0 3.0 0.00 0.00 0.00 70 1015.0
20260905145631 92 272 1.0 1.0 0.00 0.00 0.00 72 1015.1
20260905145131 91 257 1.0 2.0 0.00 0.00 0.00 73 1015.1
20260905144631 91 238 1.0 3.0 0.00 0.00 0.00 73 1015.0
20260905144131 90 164 1.0 3.0 0.00 0.00 0.00 75 1015.0
20260905143631 89 1 0.0 2.0 0.00 0.00 0.00 76 1015.0
20260905143131 88 1 0.0 2.0 0.00 0.00 0.00 78 1015.1
20260905142631 88 1 0.0 1.0 0.00 0.00 0.00 79 1014.9
20260905142131 87 44 0.0 3.0 0.00 0.00 0.00 80 1014.8
20260905141631 87 62 0.0 3.0 0.00 0.00 0.00 81 1014.8
20260905141131 86 211 0.0 1.0 0.00 0.00 0.00 83 1015.0
20260905140631 85 211 0.0 2.0 0.00 0.00 0.00 83 1015.1
20260905140131 85 216 0.0 1.0 0.00 0.00 0.00 84 1015.1
20260905135631 84 216 0.0 1.0 0.00 0.00 0.00 86 1015.1
20260905135131 83 216 0.0 1.0 0.00 0.00 0.00 87 1015.0
20260905134631 82 216 0.0 1.0 0.00 0.00 0.00 89 1014.9
20260905134131 82 216 0.0 2.0 0.00 0.00 0.00 89 1014.9
20260905133631 80 217 0.0 0.0 0.00 0.00 0.00 92 1014.8
20260905133131 79 217 0.0 0.0 0.00 0.00 0.00 93 1014.8
20260905132631 78 217 0.0 0.0 0.00 0.00 0.00 94 1014.8
20260905132131 77 217 0.0 0.0 0.00 0.00 0.00 94 1014.6
20260905131631 77 217 0.0 0.0 0.00 0.00 0.00 94 1014.7
20260905131131 76 217 0.0 0.0 0.00 0.00 0.00 95 1014.6
20260905130631 76 217 0.0 0.0 0.00 0.00 0.00 95 1014.6
20260905130131 75 217 0.0 0.0 0.00 0.00 0.00 95 1014.6
20260905125631 75 217 0.0 0.0 0.00 0.00 0.00 96 1014.7
20260905125131 75 217 0.0 0.0 0.00 0.00 0.00 96 1014.7
20260905124631 74 217 0.0 0.0 0.00 0.00 0.00 96 1014.8
20260905124131 74 217 0.0 0.0 0.00 0.00 0.00 96 1014.7
20260905123631 74 217 0.0 0.0 0.00 0.00 0.00 96 1014.8
20260905123131 73 217 0.0 0.0 0.00 0.00 0.00 96 1014.8
20260905122631 73 217 0.0 0.0 0.00 0.00 0.00 96 1014.7
20260905122131 73 217 0.0 0.0 0.00 0.00 0.00 96 1014.7
20260905121631 73 217 0.0 0.0 0.00 0.00 0.00 96 1014.6
20260905121131 72 217 0.0 0.0 0.00 0.00 0.00 95 1014.6
20260905120631 72 217 0.0 0.0 0.00 0.00 0.00 95 1014.6
20260905120131 72 217 0.0 0.0 0.00 0.00 0.00 95 1014.5
20260905115631 73 217 0.0 0.0 0.00 0.00 0.00 95 1014.5
20260905115131 73 217 0.0 0.0 0.00 0.00 0.00 95 1014.5
20260905114631 73 217 0.0 0.0 0.00 0.00 0.00 95 1014.5
20260905114131 73 217 0.0 0.0 0.00 0.00 0.00 96 1014.4
20260905113631 73 217 0.0 0.0 0.00 0.00 0.00 95 1014.3
20260905113131 73 217 0.0 0.0 0.00 0.00 0.00 95 1014.3
20260905112631 73 217 0.0 0.0 0.00 0.00 0.00 95 1014.3
20260905112131 73 217 0.0 0.0 0.00 0.00 0.00 95 1014.3
20260905111631 73 217 0.0 0.0 0.00 0.00 0.00 95 1014.3
20260905111131 73 217 0.0 0.0 0.00 0.00 0.00 95 1014.1
20260905110631 74 217 0.0 0.0 0.00 0.00 0.00 95 1014.1
20260905110131 74 217 0.0 0.0 0.00 0.00 0.00 95 1014.1
20260905105631 74 217 0.0 0.0 0.00 0.00 0.00 95 1014.1
20260905105131 74 217 0.0 0.0 0.00 0.00 0.00 95 1014.0
20260905104631 74 217 0.0 0.0 0.00 0.00 0.00 95 1014.0
20260905104131 74 217 0.0 0.0 0.00 0.00 0.00 95 1013.9
20260905103631 74 217 0.0 0.0 0.00 0.00 0.00 95 1013.9
20260905103131 74 217 0.0 0.0 0.00 0.00 0.00 95 1013.9
20260905102631 74 217 0.0 0.0 0.00 0.00 0.00 95 1013.9
20260905102131 74 217 0.0 0.0 0.00 0.00 0.00 95 1013.9
20260905101631 74 217 0.0 0.0 0.00 0.00 0.00 95 1014.0
20260905101131 74 217 0.0 0.0 0.00 0.00 0.00 95 1014.0
20260905100631 74 217 0.0 0.0 0.00 0.00 0.00 95 1013.9
20260905100131 74 217 0.0 0.0 0.00 0.00 0.00 95 1014.0
20260905095631 74 217 0.0 0.0 0.00 0.00 0.00 95 1014.0
20260905095131 74 217 0.0 0.0 0.00 0.00 0.00 95 1014.0
20260905094631 74 217 0.0 0.0 0.00 0.00 0.00 95 1013.9
20260905094131 74 217 0.0 1.0 0.00 0.00 0.00 95 1013.9
20260905093631 74 217 0.0 3.0 0.00 0.00 0.00 95 1014.0
20260905093131 74 215 0.0 0.0 0.00 0.00 0.00 95 1014.0
20260905092631 74 215 0.0 1.0 0.00 0.00 0.00 95 1013.8
20260905092131 74 215 0.0 0.0 0.00 0.00 0.00 95 1013.8
20260905091631 74 215 0.0 0.0 0.00 0.00 0.00 95 1013.9
20260905091132 74 215 0.0 2.0 0.00 0.00 0.00 95 1013.9
20260905090631 74 215 0.0 0.0 0.00 0.00 0.00 95 1013.8
20260905090131 74 215 0.0 0.0 0.00 0.00 0.00 95 1013.8
20260905085631 74 215 0.0 0.0 0.00 0.00 0.00 95 1013.8
20260905085131 74 215 0.0 0.0 0.00 0.00 0.00 95 1013.8
20260905084631 74 215 0.0 0.0 0.00 0.00 0.00 95 1013.8
20260905084131 74 215 0.0 0.0 0.00 0.00 0.00 95 1013.7
20260905083631 74 215 0.0 0.0 0.00 0.00 0.00 95 1013.8
20260905083131 74 215 0.0 1.0 0.00 0.00 0.00 95 1013.8
20260905082631 74 215 1.0 1.0 0.00 0.00 0.00 94 1013.7
20260905082131 74 215 1.0 3.0 0.00 0.00 0.00 94 1013.8
20260905081631 74 215 0.0 2.0 0.00 0.00 0.00 94 1013.8
20260905081131 74 215 0.0 1.0 0.00 0.00 0.00 94 1013.7
20260905080631 74 215 0.0 0.0 0.00 0.00 0.00 94 1013.6
20260905080131 74 215 0.0 0.0 0.00 0.00 0.00 94 1013.7
20260905075631 74 215 0.0 0.0 0.00 0.00 0.00 94 1013.8
20260905075131 75 215 0.0 0.0 0.00 0.00 0.00 94 1013.7
20260905074631 75 215 0.0 0.0 0.00 0.00 0.00 94 1013.8
20260905074131 75 215 0.0 0.0 0.00 0.00 0.00 94 1013.8
20260905073631 75 215 0.0 0.0 0.00 0.00 0.00 94 1013.8
20260905073132 75 215 0.0 0.0 0.00 0.00 0.00 95 1013.8
20260905072631 75 215 0.0 1.0 0.00 0.00 0.00 95 1013.8
20260905072132 75 215 1.0 2.0 0.00 0.00 0.00 94 1013.8
20260905071631 75 215 1.0 3.0 0.00 0.00 0.00 95 1014.0
20260905071132 75 215 1.0 4.0 0.00 0.00 0.00 95 1014.0
20260905070632 76 213 1.0 2.0 0.00 0.00 0.00 94 1013.8
20260905070132 76 213 1.0 2.0 0.00 0.00 0.00 94 1013.9
20260905065632 76 213 0.0 2.0 0.00 0.00 0.00 93 1013.7
20260905065132 76 213 0.0 2.0 0.00 0.00 0.00 92 1013.8
20260905064632 76 213 1.0 1.0 0.00 0.00 0.00 91 1013.8
20260905064132 76 213 0.0 2.0 0.00 0.00 0.00 91 1013.8
20260905063632 76 213 0.0 1.0 0.00 0.00 0.00 91 1013.9
20260905063132 76 213 0.0 1.0 0.00 0.00 0.00 91 1013.8
20260905062632 76 213 0.0 1.0 0.00 0.00 0.00 92 1013.7
20260905062132 76 213 0.0 2.0 0.00 0.00 0.00 92 1013.9
20260905061632 76 213 0.0 0.0 0.00 0.00 0.00 92 1013.9
20260905061132 76 213 0.0 0.0 0.00 0.00 0.00 93 1013.9
20260905060632 76 213 0.0 0.0 0.00 0.00 0.00 93 1013.9
20260905060132 76 213 0.0 1.0 0.00 0.00 0.00 92 1013.9
20260905055632 77 213 0.0 1.0 0.00 0.00 0.00 92 1013.8
20260905055132 77 213 0.0 0.0 0.00 0.00 0.00 93 1013.9
20260905054632 77 213 1.0 1.0 0.00 0.00 0.00 92 1013.9
20260905054132 77 213 1.0 3.0 0.00 0.00 0.00 93 1013.8
20260905053632 77 213 0.0 2.0 0.00 0.00 0.00 92 1013.9
20260905053132 77 213 2.0 2.0 0.00 0.00 0.00 92 1014.0
20260905052632 77 213 2.0 6.0 0.00 0.00 0.00 92 1014.0
20260905052132 78 212 0.0 6.0 0.00 0.00 0.00 90 1014.0
20260905051632 77 82 0.0 0.0 0.00 0.00 0.00 88 1013.7
20260905051132 78 82 0.0 0.0 0.00 0.00 0.00 87 1013.8
20260905050632 78 82 0.0 0.0 0.00 0.00 0.00 89 1013.7
20260905050132 78 82 0.0 0.0 0.00 0.00 0.00 89 1013.7
20260905045632 78 82 0.0 0.0 0.00 0.00 0.00 89 1013.7
20260905045132 79 82 0.0 0.0 0.00 0.00 0.00 88 1013.8
20260905044632 79 82 0.0 0.0 0.00 0.00 0.00 87 1013.7
20260905044132 80 82 0.0 0.0 0.00 0.00 0.00 88 1013.7
20260905043632 80 82 0.0 0.0 0.00 0.00 0.00 88 1013.8
20260905043132 80 82 0.0 0.0 0.00 0.00 0.00 88 1013.8
20260905042632 80 82 0.0 0.0 0.00 0.00 0.00 86 1013.8
20260905042132 81 82 0.0 0.0 0.00 0.00 0.00 83 1013.9
20260905041632 81 82 0.0 0.0 0.00 0.00 0.00 83 1013.9
20260905041132 81 82 0.0 0.0 0.00 0.00 0.00 82 1013.9
20260905040632 81 82 0.0 0.0 0.00 0.00 0.00 81 1014.0
20260905040132 80 82 0.0 0.0 0.00 0.00 0.00 82 1014.0
20260905035632 80 82 0.0 0.0 0.00 0.00 0.00 84 1014.0
20260905035132 80 82 0.0 0.0 0.00 0.00 0.00 83 1013.9
20260905034632 80 82 0.0 0.0 0.00 0.00 0.00 85 1013.9
20260905034132 80 82 0.0 0.0 0.00 0.00 0.00 84 1013.9
20260905033632 80 82 1.0 1.0 0.00 0.00 0.00 84 1014.0
20260905033132 80 82 1.0 2.0 0.00 0.00 0.00 85 1014.0
20260905032632 80 82 1.0 2.0 0.00 0.00 0.00 84 1014.0
20260905032132 80 82 0.0 2.0 0.00 0.00 0.00 84 1014.1
20260905031632 81 83 0.0 1.0 0.00 0.00 0.00 82 1014.1
20260905031132 81 83 0.0 0.0 0.00 0.00 0.00 83 1014.1
20260905030632 81 83 0.0 0.0 0.00 0.00 0.00 84 1014.0
20260905030132 81 83 0.0 1.0 0.00 0.00 0.00 84 1014.0
20260905025632 82 83 0.0 1.0 0.00 0.00 0.00 84 1014.1
20260905025132 82 83 0.0 0.0 0.00 0.00 0.00 83 1014.1
20260905024632 82 83 0.0 0.0 0.00 0.00 0.00 82 1014.1
20260905024132 82 83 0.0 0.0 0.00 0.00 0.00 80 1014.2
20260905023632 82 83 0.0 0.0 0.00 0.00 0.00 79 1014.1
20260905023132 82 83 0.0 1.0 0.00 0.00 0.00 79 1014.2
20260905022632 83 83 0.0 1.0 0.00 0.00 0.00 81 1014.3
20260905022132 83 83 0.0 1.0 0.00 0.00 0.00 79 1014.3
20260905021632 84 83 0.0 0.0 0.00 0.00 0.00 79 1014.3
20260905021132 84 83 1.0 2.0 0.00 0.00 0.00 79 1014.3
20260905020632 84 82 1.0 2.0 0.00 0.00 0.00 75 1014.2
20260905020132 83 79 0.0 3.0 0.00 0.00 0.00 77 1014.2
20260905015632 83 77 0.0 2.0 0.00 0.00 0.00 79 1014.2
20260905015132 83 77 1.0 2.0 0.00 0.00 0.00 81 1014.3
20260905014632 83 106 0.0 2.0 0.00 0.00 0.00 82 1014.2
20260905014132 84 105 0.0 0.0 0.00 0.00 0.00 79 1014.1
20260905013632 84 105 0.0 2.0 0.00 0.00 0.00 78 1014.0
20260905013132 85 98 0.0 1.0 0.00 0.00 0.00 75 1014.0
20260905012632 85 98 0.0 3.0 0.00 0.00 0.00 75 1014.0
20260905012132 85 96 0.0 1.0 0.00 0.00 0.00 75 1014.1
20260905011632 85 94 1.0 2.0 0.00 0.00 0.00 75 1014.1
20260905011132 85 71 1.0 3.0 0.00 0.00 0.00 74 1014.0
20260905010632 85 139 1.0 2.0 0.00 0.00 0.00 73 1014.1
20260905010132 86 91 1.0 4.0 0.00 0.00 0.00 74 1014.1
20260905005632 86 101 1.0 3.0 0.00 0.00 0.00 72 1014.2
20260905005132 87 177 0.0 2.0 0.00 0.00 0.00 71 1014.1
20260905004632 87 179 1.0 1.0 0.00 0.00 0.00 69 1014.1
20260905004132 87 179 1.0 2.0 0.00 0.00 0.00 68 1014.0
20260905003632 88 179 1.0 2.0 0.00 0.00 0.00 67 1014.0
20260905003132 88 179 0.0 4.0 0.00 0.00 0.00 66 1014.1
20260905002632 88 108 0.0 1.0 0.00 0.00 0.00 68 1014.1
20260905002132 88 108 0.0 2.0 0.00 0.00 0.00 68 1014.0
20260905001632 89 108 1.0 1.0 0.00 0.00 0.00 64 1014.0
20260905001132 89 108 1.0 2.0 0.00 0.00 0.00 64 1014.0
20260905000632 89 134 0.0 2.0 0.00 0.00 0.00 63 1013.9
20260905000132 90 214 0.0 0.0 0.00 0.00 0.00 62 1013.7
20260904235632 90 214 1.0 0.0 0.00 0.00 0.00 63 1013.7
20260904235132 90 214 2.0 2.0 0.00 0.00 0.00 62 1013.7
20260904234632 90 214 1.0 4.0 0.00 0.00 0.00 62 1013.6
20260904234132 91 321 0.0 2.0 0.00 0.00 0.00 63 1013.5
20260904233632 90 30 0.0 1.0 0.00 0.00 0.00 62 1013.6
20260904233132 90 30 0.0 1.0 0.00 0.00 0.00 62 1013.5
20260904232632 91 30 1.0 2.0 0.00 0.00 0.00 61 1013.7
20260904232132 91 35 2.0 4.0 0.00 0.00 0.00 58 1013.7
20260904231632 92 161 3.0 5.0 0.00 0.00 0.00 59 1013.8
20260904231132 93 6 4.0 11.0 0.00 0.00 0.00 57 1013.8
20260904230632 94 178 4.0 11.0 0.00 0.00 0.00 58 1013.6
20260904230132 95 134 3.0 7.0 0.00 0.00 0.00 58 1013.4
20260904225632 95 176 4.0 6.0 0.00 0.00 0.00 60 1013.3
20260904225132 95 229 5.0 8.0 0.00 0.00 0.00 59 1013.0
20260904224632 95 223 5.0 9.0 0.00 0.00 0.00 59 1013.1
20260904224132 95 224 5.0 9.0 0.00 0.00 0.00 58 1013.1
20260904223632 96 200 4.0 8.0 0.00 0.00 0.00 58 1013.1
20260904223132 96 253 4.0 7.0 0.00 0.00 0.00 57 1013.2
20260904222632 96 240 4.0 8.0 0.00 0.00 0.00 57 1013.2
20260904222132 97 242 4.0 6.0 0.00 0.00 0.00 55 1013.2
20260904221632 98 257 2.0 5.0 0.00 0.00 0.00 53 1013.1
20260904221132 99 144 1.0 5.0 0.00 0.00 0.00 50 1013.0
20260904220632 99 356 1.0 3.0 0.00 0.00 0.00 49 1013.0
20260904220132 100 144 1.0 4.0 0.00 0.00 0.00 48 1012.8
20260904215632 100 58 1.0 4.0 0.00 0.00 0.00 47 1012.8
20260904215132 100 127 2.0 4.0 0.00 0.00 0.00 47 1012.7
20260904214632 100 98 3.0 4.0 0.00 0.00 0.00 47 1012.7
20260904214132 100 3 4.0 5.0 0.00 0.00 0.00 47 1012.7
20260904213632 101 244 4.0 8.0 0.00 0.00 0.00 47 1012.7
20260904213132 100 95 5.0 10.0 0.00 0.00 0.00 47 1012.9
20260904212632 101 217 4.0 13.0 0.00 0.00 0.00 47 1012.7
20260904212132 101 139 4.0 8.0 0.00 0.00 0.00 47 1012.8
20260904211632 100 179 3.0 8.0 0.00 0.00 0.00 47 1012.9
20260904211132 101 162 3.0 5.0 0.00 0.00 0.00 47 1012.9
20260904210632 101 160 3.0 8.0 0.00 0.00 0.00 47 1012.8
20260904210132 100 94 3.0 7.0 0.00 0.00 0.00 47 1012.9
20260904205632 100 184 4.0 8.0 0.00 0.00 0.00 48 1013.0
20260904205132 101 148 3.0 8.0 0.00 0.00 0.00 47 1013.2
20260904204632 101 161 3.0 7.0 0.00 0.00 0.00 47 1013.2
20260904204134 101 59 4.0 9.0 0.00 0.00 0.00 46 1013.3
20260904203632 102 113 4.0 6.0 0.00 0.00 0.00 46 1013.4
20260904203132 102 137 3.0 8.0 0.00 0.00 0.00 46 1013.4
20260904202632 102 130 3.0 7.0 0.00 0.00 0.00 45 1013.4
20260904202132 101 144 3.0 11.0 0.00 0.00 0.00 47 1013.5
20260904201632 101 207 3.0 6.0 0.00 0.00 0.00 47 1013.6
20260904201132 100 167 3.0 7.0 0.00 0.00 0.00 48 1013.7
20260904200632 99 214 3.0 6.0 0.00 0.00 0.00 48 1013.8
20260904200132 99 119 2.0 7.0 0.00 0.00 0.00 48 1013.9
20260904195632 99 108 2.0 5.0 0.00 0.00 0.00 50 1014.0
20260904195132 99 207 3.0 6.0 0.00 0.00 0.00 49 1014.2
20260904194632 99 208 3.0 9.0 0.00 0.00 0.00 49 1014.2
20260904194132 100 170 3.0 9.0 0.00 0.00 0.00 48 1014.3
20260904193632 101 167 3.0 7.0 0.00 0.00 0.00 48 1014.5
20260904193132 101 194 4.0 6.0 0.00 0.00 0.00 48 1014.6
20260904192632 101 235 3.0 8.0 0.00 0.00 0.00 47 1014.6
20260904192132 101 203 2.0 7.0 0.00 0.00 0.00 47 1014.7
20260904191632 100 347 2.0 4.0 0.00 0.00 0.00 48 1014.7
20260904191132 99 3 3.0 5.0 0.00 0.00 0.00 48 1014.8
20260904190632 99 240 4.0 8.0 0.00 0.00 0.00 49 1014.9